Wind_Speed
50 50 50 48 48 48 48 48 47 46 45 44 44 43 43 42 40 40 39 38 37 36 35 33 32 31 30 28 28 27 26 25 24 24 23 23 24 24
51 50 49 49 48 48 47 46 46 46 45 44 44 43 42 41 40 39 39 38 37 35 33 32 31 30 28 27 27 26 25 25 24 24 24 24 24 25
49 49 49 49 48 47 46 45 44 44 44 44 43 43 41 41 40 39 38 37 35 34 32 31 30 29 28 27 26 26 25 25 25 25 25 25 25 25
49 49 48 48 47 46 45 45 44 44 44 44 43 41 40 40 40 38 37 36 34 33 31 30 29 28 28 27 26 26 26 25 26 26 26 26 26 26
48 48 47 46 46 45 45 45 44 44 44 43 42 41 40 39 38 37 36 35 34 32 31 30 29 28 28 27 27 27 27 27 27 27 27 27 28 28
46 46 45 45 45 45 45 44 44 44 43 43 41 40 39 37 36 35 34 33 32 32 31 30 29 29 28 28 27 27 28 28 28 29 29 29 29 30
45 44 44 44 44 44 43 43 43 42 41 40 40 38 37 36 35 34 33 33 32 31 31 30 29 29 29 28 28 28 29 29 29 30 30 31 31 31
44 43 43 43 43 43 42 42 41 40 39 38 38 37 36 35 35 34 34 32 32 31 30 30 29 29 29 28 29 29 30 30 31 31 32 32 33 34
43 43 43 43 42 42 42 41 40 39 38 37 37 36 36 35 34 33 33 32 31 30 30 30 30 29 29 29 30 30 31 32 32 33 33 34 35 35
42 42 42 41 41 41 40 39 38 38 37 36 36 35 34 33 33 32 32 31 31 30 30 30 30 30 30 30 31 32 32 33 33 34 35 35 35 36
41 41 41 41 40 40 39 38 38 37 36 36 35 34 34 33 32 32 31 31 30 30 30 30 30 30 31 31 32 33 33 34 34 35 35 35 36 36
39 39 40 40 40 39 37 37 37 36 35 35 35 34 34 33 31 31 30 30 30 30 30 30 30 31 32 33 34 34 34 35 35 36 36 36 37 37
38 37 37 37 37 37 36 36 35 35 34 34 34 34 32 31 30 31 30 30 30 30 30 31 31 32 33 34 35 35 35 35 36 36 37 37 37 37
36 36 36 35 35 35 35 34 34 34 34 33 33 32 31 31 30 31 30 30 30 30 31 32 32 33 34 35 35 36 36 36 37 37 37 37 37 38
35 34 34 34 34 34 33 33 33 33 32 32 31 31 31 31 31 31 31 31 31 31 32 33 33 34 35 35 36 36 36 36 37 37 37 37 38 38
34 33 33 33 33 32 32 32 32 32 32 32 32 32 31 31 31 31 31 31 32 32 33 34 34 35 35 36 37 37 37 37 37 37 38 38 39 39
33 32 32 31 31 31 31 31 31 31 31 31 31 31 31 31 31 31 32 32 33 34 34 34 35 35 36 37 37 38 38 38 37 38 38 39 40 40
32 32 31 31 31 31 31 31 31 31 31 31 31 32 32 32 32 33 33 34 34 35 35 35 36 36 37 37 38 38 38 38 38 38 39 39 41 40
31 31 31 30 30 31 30 30 31 31 31 32 32 32 33 33 33 34 34 35 35 36 36 37 37 37 37 38 38 39 38 38 38 39 39 39 40 40
32 32 31 31 31 31 31 31 31 31 32 32 33 33 34 34 35 35 36 36 36 37 37 37 38 38 38 38 38 39 39 39 39 39 39 39 39 40
33 33 33 32 32 32 32 33 33 33 33 33 34 34 35 35 35 36 37 37 37 38 38 39 39 38 39 39 39 40 40 40 39 39 39 39 39 39
33 33 33 33 33 34 34 34 34 34 34 34 35 35 36 36 36 37 38 38 39 39 40 40 40 40 39 39 39 40 40 41 40 40 40 39 39 39
34 34 34 35 35 35 35 35 35 35 35 36 36 37 37 37 37 38 39 39 40 40 40 40 41 40 40 40 40 40 41 41 41 41 41 41 40 40
Wind_Direction
281 282 282 284 285 285 286 286 287 287 287 287 287 288 288 288 288 288 289 290 291 292 292 291 291 290 289 288 289 289 288 287 287 287 288 288 288 287
282 282 282 283 284 284 285 285 285 285 285 286 286 286 287 286 286 286 287 288 289 289 290 290 289 289 287 287 287 287 286 286 286 286 287 288 288 286
281 281 282 282 283 283 282 282 283 284 285 285 285 285 284 284 285 284 285 286 287 288 289 288 288 287 286 286 286 286 285 285 286 286 286 287 287 285
279 280 280 280 281 280 280 281 282 283 283 284 284 284 283 284 283 283 283 284 285 286 286 286 286 285 284 284 285 285 285 285 285 286 286 286 287 286
278 279 279 279 279 280 280 281 281 281 282 283 283 282 282 282 282 282 282 282 283 283 284 284 283 283 283 283 284 284 284 284 285 285 285 285 286 286
278 278 279 279 279 279 280 280 280 280 281 281 280 280 280 280 280 280 280 281 281 281 281 281 281 282 282 282 283 283 284 284 284 285 285 285 285 286
278 278 278 278 278 278 278 279 279 279 279 279 278 278 278 279 279 279 278 279 280 279 280 280 281 282 282 282 283 284 284 284 284 285 285 285 285 286
277 277 277 277 277 277 277 277 277 277 277 277 276 276 276 277 277 278 277 278 277 278 278 279 281 281 281 282 283 284 284 284 284 285 285 285 285 286
276 277 277 277 277 277 277 276 276 275 275 275 274 275 276 276 276 277 276 276 276 277 277 279 280 281 281 282 283 284 285 285 285 286 286 286 286 286
276 276 276 277 277 277 277 275 274 274 273 273 274 275 274 274 274 275 275 276 276 276 277 279 280 280 281 283 284 285 286 286 286 286 286 286 286 286
276 276 275 275 276 275 274 273 273 272 272 272 273 273 273 273 273 273 274 275 275 276 278 279 280 281 283 284 285 286 286 286 286 287 287 287 287 287
276 275 275 274 273 273 273 273 272 271 271 272 273 272 272 271 272 273 274 274 276 277 279 280 281 282 284 285 286 287 286 286 287 287 288 288 288 288
276 276 275 274 273 272 272 272 271 271 271 272 272 271 270 269 270 272 273 275 276 278 280 281 282 283 285 286 287 287 287 287 288 288 288 289 289 289
276 276 275 273 272 271 271 270 271 271 272 273 272 270 269 269 270 272 273 275 277 279 280 282 283 285 286 287 287 288 288 288 288 289 289 289 290 291
276 275 274 274 272 272 271 271 272 272 273 273 271 270 269 269 271 272 273 275 277 279 281 283 284 286 287 288 288 288 289 289 289 289 289 290 291 292
275 275 274 274 273 272 271 272 272 272 273 272 271 270 270 270 271 273 274 276 278 280 282 284 285 286 287 288 289 289 289 290 290 290 290 291 292 293
274 274 273 273 272 272 271 271 271 271 272 272 271 271 270 270 272 274 276 277 279 281 283 285 286 287 288 289 289 289 289 290 290 290 291 292 292 293
272 272 272 272 272 272 272 271 271 271 271 271 271 271 271 272 273 275 277 278 280 282 284 285 286 288 289 289 289 289 290 290 290 291 292 292 293 294
272 272 272 272 272 272 272 272 271 271 270 270 271 271 272 272 274 276 277 279 281 282 284 285 287 288 289 289 290 290 290 290 291 292 293 293 293 294
271 272 272 272 272 272 272 272 271 271 271 271 271 272 272 273 274 276 278 279 281 282 284 285 287 288 288 289 290 290 290 291 291 292 293 293 293 294
271 271 272 272 272 272 272 271 272 272 271 272 272 273 274 275 275 276 278 279 280 282 284 285 286 287 288 289 289 289 290 290 291 291 292 293 294 294
271 271 272 272 272 272 272 272 272 272 272 272 273 274 275 276 276 277 278 280 281 282 284 285 286 287 288 288 289 289 289 290 291 291 292 292 293 293
272 272 272 272 272 272 273 273 273 272 272 273 274 275 276 276 277 278 279 280 282 282 283 284 286 287 288 288 288 289 289 290 291 292 293 293 293 293
Height
5765 5763 5762 5760 5758 5756 5754 5752 5750 5749 5747 5745 5742 5740 5737 5734 5732 5730 5727 5725 5723 5721 5718 5716 5714 5712 5710 5708 5706 5705 5703 5702 5700 5699 5697 5696 5694 5693
5753 5752 5751 5749 5747 5745 5743 5741 5739 5737 5736 5734 5731 5729 5727 5724 5722 5720 5718 5715 5714 5712 5709 5708 5706 5704 5702 5701 5699 5697 5696 5695 5693 5692 5691 5689 5688 5686
5741 5740 5739 5737 5735 5733 5731 5730 5728 5726 5724 5723 5720 5718 5716 5714 5712 5710 5708 5706 5704 5702 5701 5699 5697 5696 5694 5693 5691 5690 5689 5687 5686 5685 5683 5682 5681 5680
5729 5728 5727 5725 5723 5721 5720 5718 5716 5714 5713 5711 5709 5707 5706 5704 5702 5700 5698 5696 5695 5694 5692 5691 5689 5688 5686 5685 5684 5682 5681 5680 5678 5677 5676 5675 5673 5672
5717 5716 5714 5713 5712 5710 5708 5707 5705 5703 5701 5700 5698 5697 5695 5693 5692 5691 5689 5687 5686 5685 5683 5682 5681 5679 5678 5677 5676 5674 5673 5672 5671 5669 5668 5667 5665 5664
5704 5703 5702 5701 5700 5698 5697 5695 5693 5691 5690 5689 5687 5686 5684 5683 5682 5681 5679 5678 5677 5676 5675 5673 5672 5671 5670 5669 5667 5666 5665 5664 5662 5661 5659 5658 5657 5655
5693 5691 5690 5689 5688 5686 5685 5683 5682 5680 5679 5678 5676 5675 5674 5673 5672 5671 5670 5669 5668 5667 5666 5665 5664 5662 5661 5660 5659 5658 5656 5655 5653 5652 5650 5649 5647 5646
5681 5679 5678 5677 5676 5674 5673 5672 5670 5669 5668 5667 5666 5665 5664 5663 5662 5661 5661 5660 5659 5658 5657 5656 5655 5654 5652 5651 5650 5649 5647 5646 5644 5642 5641 5639 5637 5635
5669 5668 5666 5665 5664 5663 5661 5660 5659 5658 5657 5657 5656 5655 5654 5653 5652 5652 5651 5650 5650 5649 5648 5647 5646 5645 5644 5642 5641 5639 5638 5636 5634 5632 5630 5629 5627 5624
5657 5656 5655 5654 5653 5651 5650 5649 5648 5647 5647 5646 5645 5645 5644 5643 5643 5642 5642 5641 5640 5640 5639 5638 5637 5636 5634 5633 5631 5630 5628 5626 5624 5622 5620 5618 5615 5613
5645 5644 5643 5643 5642 5640 5640 5639 5638 5637 5636 5636 5635 5634 5634 5633 5633 5633 5632 5632 5631 5630 5630 5629 5627 5626 5625 5623 5621 5620 5618 5616 5613 5611 5609 5606 5604 5601
5634 5633 5632 5631 5630 5629 5629 5628 5628 5627 5626 5626 5625 5625 5624 5624 5623 5623 5623 5622 5622 5621 5620 5619 5618 5616 5615 5613 5611 5609 5607 5605 5602 5600 5597 5595 5592 5590
5623 5622 5621 5620 5619 5619 5618 5618 5617 5617 5616 5616 5615 5615 5615 5614 5614 5614 5613 5613 5613 5612 5611 5610 5608 5606 5605 5603 5600 5598 5596 5594 5591 5588 5586 5583 5580 5578
5613 5612 5611 5610 5609 5608 5608 5608 5607 5607 5607 5606 5606 5606 5605 5605 5605 5605 5604 5604 5603 5602 5601 5600 5598 5596 5594 5592 5589 5587 5585 5582 5580 5577 5574 5571 5568 5565
5603 5602 5601 5600 5599 5599 5598 5598 5598 5598 5597 5597 5597 5596 5596 5596 5596 5595 5595 5594 5593 5592 5591 5590 5588 5586 5583 5581 5578 5576 5573 5571 5568 5565 5562 5559 5556 5553
5593 5592 5591 5590 5590 5589 5589 5588 5588 5588 5588 5588 5587 5587 5587 5587 5586 5586 5585 5585 5584 5583 5581 5579 5577 5575 5572 5570 5567 5564 5562 5559 5556 5553 5550 5547 5544 5541
5583 5583 5582 5581 5580 5580 5579 5579 5579 5579 5578 5578 5578 5578 5577 5577 5577 5576 5575 5574 5573 5572 5570 5569 5566 5564 5561 5559 5556 5553 5550 5547 5545 5542 5538 5534 5531 5528
5574 5573 5573 5572 5571 5571 5570 5570 5570 5569 5569 5568 5568 5568 5568 5567 5567 5566 5565 5564 5563 5561 5559 5557 5555 5553 5550 5547 5545 5541 5538 5536 5533 5530 5526 5522 5518 5515
5565 5564 5563 5563 5562 5562 5561 5560 5560 5560 5559 5559 5558 5558 5558 5557 5556 5556 5555 5553 5552 5550 5548 5546 5544 5541 5538 5535 5532 5530 5527 5524 5521 5518 5514 5511 5506 5502
5555 5555 5554 5553 5553 5552 5552 5551 5551 5550 5550 5549 5548 5548 5547 5547 5546 5545 5544 5542 5540 5538 5536 5534 5532 5530 5527 5524 5521 5517 5515 5512 5509 5506 5502 5499 5495 5490
5545 5545 5544 5544 5543 5542 5542 5541 5541 5540 5539 5539 5538 5537 5536 5536 5535 5533 5532 5530 5529 5527 5525 5522 5520 5518 5515 5512 5509 5505 5502 5499 5497 5494 5490 5487 5483 5479
5535 5534 5534 5533 5533 5532 5531 5531 5530 5530 5529 5528 5527 5526 5525 5524 5523 5522 5520 5519 5517 5515 5512 5510 5507 5505 5503 5500 5497 5493 5489 5486 5484 5481 5478 5475 5471 5468
5524 5524 5523 5523 5522 5521 5521 5520 5519 5518 5518 5517 5516 5515 5514 5513 5511 5510 5508 5506 5504 5502 5500 5497 5495 5492 5490 5487 5484 5481 5477 5474 5471 5468 5465 5462 5459 5456